Meridian, MS

2:27 AM CST on February 09, 2016 (GMT -0600)
Meridian Naval Air Station

Weather History for KNMM - October, 2011

Change the Weather History Date:

Wednesday, October 12, 2011

  Actual Average Record
Temperature  
Mean Temperature 66 °F -  
Max Temperature 72 °F 75 °F 88 °F (2014)
Min Temperature 62 °F 53 °F 37 °F (2000)
Cooling Degree Days 2    
Growing Degree Days 16 (Base 50)    
Moisture  
Dew Point 62 °F    
Average Humidity 86    
Maximum Humidity 94    
Minimum Humidity 70    
Precipitation  
Precipitation 0.19 in - - ()
Sea Level Pressure  
Sea Level Pressure 29.87 in    
Wind  
Wind Speed 1 mph (South)    
Max Wind Speed 5 mph    
Max Gust Speed -    
Visibility 7 miles    
Events Rain    
Averages and records for this station are not official NWS values.
T = Trace of Precipitation, MM = Missing Value Source: NWS Daily Summary

Daily Weather History Graph

Daily Weather History Graph

Search for Another Location

Airport or City:

Trip Planner

Search our weather history database for the weather conditions in past years. The results will help you decide how hot, cold, wet, or windy it might be!

Date:

Astronomy

Oct. 12, 2011 Rise Set
Actual Time 6:55 AM CDT 6:25 PM CDT
Civil Twilight 6:31 AM CDT 6:49 PM CDT
Nautical Twilight 6:02 AM CDT 7:18 PM CDT
Astronomical Twilight 5:34 AM CDT 7:46 PM CDT
Moon 6:33 PM CDT (10/12) 7:24 AM CDT (10/12)
Length of Visible Light 12h 18m
Length of Day
11h 29m
Full, 100% of the Moon is Illuminated
Oct 12
Full
Oct 19
Last Quarter
Oct 26
New
Nov 2
First Quarter
Nov 10
Full

Hourly Weather History & Observations

Time (CDT) Temp. Dew Point Humidity Pressure Visibility Wind Dir Wind Speed Gust Speed Precip Events Conditions
12:38 AM 64.4 °F 60.8 °F 88% 29.89 in 9.0 mi Calm Calm - N/A   Overcast
12:56 AM 64.9 °F 61.0 °F 87% 29.91 in 10.0 mi East 3.5 mph - N/A   Overcast
1:09 AM 64.4 °F 60.8 °F 88% 29.88 in 9.0 mi Calm Calm - N/A   Overcast
1:56 AM 64.0 °F 61.0 °F 90% 29.91 in 8.0 mi Calm Calm - N/A   Overcast
2:12 AM 64.4 °F 60.8 °F 88% 29.88 in 8.0 mi Calm Calm - N/A   Overcast
2:42 AM 64.4 °F 60.8 °F 88% 29.87 in 8.0 mi Calm Calm - N/A   Overcast
2:56 AM 64.0 °F 61.0 °F 90% 29.90 in 8.0 mi Calm Calm - N/A   Overcast
3:22 AM 64.4 °F 60.8 °F 88% 29.86 in 8.0 mi Calm Calm - N/A   Overcast
3:45 AM 64.4 °F 60.8 °F 88% 29.86 in 8.0 mi Calm Calm - N/A   Overcast
3:51 AM 64.4 °F 60.8 °F 88% 29.86 in 7.0 mi Calm Calm - N/A   Overcast
3:56 AM 64.0 °F 61.0 °F 90% 29.88 in 7.0 mi Calm Calm - N/A   Overcast
4:09 AM 64.4 °F 60.8 °F 88% 29.86 in 8.0 mi Calm Calm - N/A   Overcast
4:42 AM 64.4 °F 60.8 °F 88% 29.85 in 7.0 mi Calm Calm - N/A   Overcast
4:56 AM 64.0 °F 61.0 °F 90% 29.88 in 7.0 mi Calm Calm - N/A   Overcast
5:58 AM 64.4 °F 60.8 °F 88% 29.87 in 8.0 mi Calm Calm - N/A   Overcast
6:56 AM 64.0 °F 61.0 °F 90% 29.90 in 3.0 mi Calm Calm - 0.00 in   Light Drizzle
7:14 AM 64.4 °F 60.8 °F 88% 29.88 in 2.0 mi East 3.5 mph - 0.00 in   Light Drizzle
7:53 AM 64.4 °F 60.8 °F 88% 29.88 in 2.0 mi Calm Calm - 0.00 in   Light Drizzle
7:56 AM 64.0 °F 61.0 °F 90% 29.91 in 2.0 mi Calm Calm - 0.00 in   Light Drizzle
8:56 AM 64.9 °F 62.1 °F 90% 29.91 in 2.0 mi Calm Calm - 0.01 in   Light Drizzle
9:29 AM 64.4 °F 62.6 °F 94% 29.89 in 5.0 mi SSE 3.5 mph - 0.00 in   Overcast
9:56 AM 66.0 °F 62.1 °F 87% 29.91 in 8.0 mi Calm Calm - 0.00 in   Overcast
10:07 AM 66.2 °F 62.6 °F 88% 29.90 in 7.0 mi Calm Calm - N/A   Overcast
10:21 AM 66.2 °F 62.6 °F 88% 29.89 in 1.0 mi South 3.5 mph - 0.00 in Rain Light Rain
10:56 AM 66.0 °F 63.0 °F 90% 29.91 in 1.0 mi Calm Calm - 0.00 in   Overcast
11:27 AM 66.2 °F 62.6 °F 88% 29.88 in 1.0 mi Calm Calm - 0.01 in Rain Light Rain
11:56 AM 68.0 °F 62.1 °F 81% 29.90 in 7.0 mi Calm Calm - 0.01 in   Overcast
12:37 PM 69.8 °F 62.6 °F 78% 29.86 in 10.0 mi WNW 3.5 mph - N/A   Overcast
12:56 PM 70.0 °F 62.1 °F 76% 29.88 in 10.0 mi Calm Calm - N/A   Overcast
1:56 PM 70.0 °F 63.0 °F 78% 29.85 in 10.0 mi Calm Calm - N/A   Overcast
2:16 PM 71.6 °F 62.6 °F 73% 29.81 in 10.0 mi Calm Calm - N/A   Overcast
2:56 PM 71.1 °F 62.1 °F 73% 29.84 in 10.0 mi Calm Calm - N/A   Overcast
3:56 PM 71.1 °F 61.0 °F 70% 29.82 in 10.0 mi SW 3.5 mph - N/A   Overcast
4:56 PM 71.1 °F 63.0 °F 75% 29.80 in 10.0 mi Calm Calm - N/A   Mostly Cloudy
5:56 PM 69.1 °F 64.0 °F 84% 29.80 in 10.0 mi Calm Calm - N/A   Mostly Cloudy
6:56 PM 64.9 °F 62.1 °F 90% 29.81 in 10.0 mi Calm Calm - N/A   Mostly Cloudy
7:56 PM 64.9 °F 62.1 °F 90% 29.83 in 10.0 mi Calm Calm - N/A   Mostly Cloudy
8:11 PM 66.2 °F 62.6 °F 88% 29.82 in 3.0 mi Calm Calm - 0.00 in Rain Rain
8:56 PM 64.0 °F 61.0 °F 90% 29.85 in 4.0 mi WSW 3.5 mph - 0.12 in Rain Rain
9:56 PM 63.0 °F 61.0 °F 93% 29.83 in 10.0 mi SE 4.6 mph - 0.04 in   Overcast
10:56 PM 62.1 °F 60.1 °F 93% 29.82 in 10.0 mi South 3.5 mph - 0.01 in   Scattered Clouds
11:56 PM 62.1 °F 59.0 °F 90% 29.81 in 10.0 mi Calm Calm - N/A   Clear